,,,PA_Meas_PMT16A,,PR_Meas_QMR101_102,,RH_Meas_QMH101,,SR_Meas_QMS101,,TA_Meas_QMH101,,GenWind,,GenWind,
date,time,status,PA,status,PR,status,RH,status,SR,status,TA,status,DirAvg,status,SpdAvg,
2009-09-01, 00:00:04,VALID,1004.81,VALID,0,VALID,86.5954,VALID,0,VALID,26.2524,VALID,63,VALID,0,
2009-09-01, 00:01:04,VALID,1004.84,VALID,0,VALID,86.6259,VALID,0.100563,VALID,26.194,VALID,63,VALID,0,
2009-09-01, 00:02:04,VALID,1004.83,VALID,0,VALID,86.8548,VALID,0.100563,VALID,26.194,VALID,63,VALID,0,
2009-09-01, 00:03:04,VALID,1004.82,VALID,0,VALID,86.8472,VALID,0.100563,VALID,26.153,VALID,63,VALID,0.239453,
2009-09-01, 00:04:04,VALID,1004.81,VALID,0,VALID,86.8929,VALID,0.100563,VALID,26.155,VALID,63,VALID,0.0800781,
2009-09-01, 00:05:04,VALID,1004.78,VALID,0,VALID,86.8472,VALID,0.100563,VALID,26.194,VALID,63,VALID,0,
2009-09-01, 00:06:04,VALID,1004.75,VALID,0,VALID,86.8777,VALID,0.100563,VALID,26.153,VALID,63,VALID,0.223828,
2009-09-01, 00:07:05,VALID,1004.78,VALID,0,VALID,87.1294,VALID,0.100563,VALID,26.1141,VALID,63,VALID,0.553125,
2009-09-01, 00:08:05,VALID,1004.76,VALID,0,VALID,87.343,VALID,0.100563,VALID,26.0576,VALID,63,VALID,0.360938,
2009-09-01, 00:09:05,VALID,1004.78,VALID,0,VALID,87.4727,VALID,0.100563,VALID,26.0381,VALID,63,VALID,0.382422,
2009-09-01, 00:10:05,VALID,1004.81,VALID,0,VALID,87.7855,VALID,0.100563,VALID,25.9797,VALID,63,VALID,0.260547,
2009-09-01, 00:11:05,VALID,1004.8,VALID,0,VALID,87.9228,VALID,0.100563,VALID,25.9602,VALID,63,VALID,0.515625,
2009-09-01, 00:12:05,VALID,1004.81,VALID,0,VALID,88.0754,VALID,0.100563,VALID,25.9408,VALID,52,VALID,0.517969,
2009-09-01, 00:13:05,VALID,1004.82,VALID,0,VALID,88.2738,VALID,0.100563,VALID,25.9018,VALID,52,VALID,0.1,
2009-09-01, 00:14:05,VALID,1004.81,VALID,0,VALID,88.3501,VALID,0,VALID,25.8609,VALID,52,VALID,0.253125,
2009-09-01, 00:15:05,VALID,1004.8,VALID,0,VALID,88.5332,VALID,0,VALID,25.8823,VALID,52,VALID,0.407422,
2009-09-01, 00:16:05,VALID,1004.8,VALID,0,VALID,88.6552,VALID,0.100563,VALID,25.8434,VALID,52,VALID,0.227734,
2009-09-01, 00:17:05,VALID,1004.79,VALID,0,VALID,88.6323,VALID,0.100563,VALID,25.8219,VALID,52,VALID,0.287109,
2009-09-01, 00:18:05,VALID,1004.77,VALID,0,VALID,88.8383,VALID,0.100563,VALID,25.8434,VALID,52,VALID,0.488672,
2009-09-01, 00:19:05,VALID,1004.76,VALID,0,VALID,89.1282,VALID,0,VALID,25.8239,VALID,52,VALID,0.550391,
2009-09-01, 00:20:05,VALID,1004.74,VALID,0,VALID,89.2732,VALID,0.100563,VALID,25.783,VALID,52,VALID,0.219531,
2009-09-01, 00:21:05,VALID,1004.73,VALID,0,VALID,89.296,VALID,0.100563,VALID,25.8064,VALID,52,VALID,0.2875,
2009-09-01, 00:22:05,VALID,1004.73,VALID,0,VALID,89.3571,VALID,0,VALID,25.746,VALID,52,VALID,0.366016,
2009-09-01, 00:23:05,VALID,1004.72,VALID,0,VALID,89.6241,VALID,0.100563,VALID,25.7246,VALID,52,VALID,0.302734,
2009-09-01, 00:24:05,VALID,1004.71,VALID,0,VALID,89.5707,VALID,0,VALID,25.7071,VALID,52,VALID,0.297266,
2009-09-01, 00:25:05,VALID,1004.71,VALID,0,VALID,89.769,VALID,0.100563,VALID,25.7071,VALID,52,VALID,0.206641,
2009-09-01, 00:26:05,VALID,1004.69,VALID,0,VALID,89.8682,VALID,0.100563,VALID,25.7071,VALID,52,VALID,0.4625,
2009-09-01, 00:27:05,VALID,1004.69,VALID,0,VALID,90.0513,VALID,0.100563,VALID,25.6662,VALID,52,VALID,0.215625,
2009-09-01, 00:28:05,VALID,1004.69,VALID,0,VALID,90.0742,VALID,0.100563,VALID,25.6292,VALID,52,VALID,0.205859,
2009-09-01, 00:29:05,VALID,1004.68,VALID,0,VALID,90.1505,VALID,0.100563,VALID,25.6292,VALID,52,VALID,0.439063,
2009-09-01, 00:30:05,VALID,1004.67,VALID,0,VALID,90.2573,VALID,0.100563,VALID,25.5707,VALID,52,VALID,0.272656,
2009-09-01, 00:31:05,VALID,1004.68,VALID,0,VALID,90.4327,VALID,0.100563,VALID,25.5513,VALID,52,VALID,0,
2009-09-01, 00:32:05,VALID,1004.65,VALID,0,VALID,90.6464,VALID,0.100563,VALID,25.5513,VALID,52,VALID,0,
2009-09-01, 00:33:05,VALID,1004.67,VALID,0,VALID,90.7608,VALID,0.100563,VALID,25.5318,VALID,52,VALID,0,
2009-09-01, 00:34:05,VALID,1004.65,VALID,0,VALID,90.7837,VALID,0.100563,VALID,25.4909,VALID,52,VALID,0,
2009-09-01, 00:35:05,VALID,1004.62,VALID,0,VALID,90.776,VALID,0.100563,VALID,25.5123,VALID,33,VALID,0,
2009-09-01, 00:36:05,VALID,1004.63,VALID,0,VALID,90.8066,VALID,0.100563,VALID,25.5513,VALID,27,VALID,0.446094,
2009-09-01, 00:37:05,VALID,1004.62,VALID,0,VALID,90.8752,VALID,0.100563,VALID,25.5298,VALID,27,VALID,0.18125,
2009-09-01, 00:38:05,VALID,1004.61,VALID,0,VALID,90.8371,VALID,0.100563,VALID,25.5318,VALID,27,VALID,0.133203,
2009-09-01, 00:39:05,VALID,1004.58,VALID,0,VALID,90.8371,VALID,0.100563,VALID,25.5532,VALID,27,VALID,0.009375,
2009-09-01, 00:40:05,VALID,1004.59,VALID,0,VALID,90.921,VALID,0.100563,VALID,25.5513,VALID,27,VALID,0.219531,
2009-09-01, 00:41:05,VALID,1004.57,VALID,0,VALID,90.9515,VALID,0.100563,VALID,25.5318,VALID,27,VALID,0,
2009-09-01, 00:42:05,VALID,1004.57,VALID,0,VALID,91.127,VALID,0.100563,VALID,25.5318,VALID,27,VALID,0,
2009-09-01, 00:43:05,VALID,1004.59,VALID,0,VALID,91.1575,VALID,0,VALID,25.4948,VALID,27,VALID,0.223047,
2009-09-01, 00:44:05,VALID,1004.56,VALID,0,VALID,91.2262,VALID,0,VALID,25.4948,VALID,27,VALID,0.339063,
2009-09-01, 00:45:05,VALID,1004.54,VALID,0,VALID,91.3635,VALID,0,VALID,25.4539,VALID,27,VALID,0.00585938,
2009-09-01, 00:46:05,VALID,1004.56,VALID,0,VALID,91.4245,VALID,0,VALID,25.4753,VALID,27,VALID,0,
2009-09-01, 00:47:05,VALID,1004.53,VALID,0,VALID,91.3635,VALID,0.100563,VALID,25.4344,VALID,27,VALID,0,
2009-09-01, 00:48:05,VALID,1004.55,VALID,0,VALID,91.3864,VALID,0,VALID,25.4363,VALID,27,VALID,0,
2009-09-01, 00:49:05,VALID,1004.53,VALID,0,VALID,91.4169,VALID,0,VALID,25.4344,VALID,27,VALID,0,
2009-09-01, 00:50:05,VALID,1004.52,VALID,0,VALID,91.4626,VALID,0,VALID,25.4363,VALID,27,VALID,0,
2009-09-01, 00:51:05,VALID,1004.51,VALID,0,VALID,91.6,VALID,0.100563,VALID,25.4363,VALID,27,VALID,0,
2009-09-01, 00:52:05,VALID,1004.5,VALID,0,VALID,91.6457,VALID,0,VALID,25.4169,VALID,27,VALID,0,
2009-09-01, 00:53:05,VALID,1004.51,VALID,0,VALID,91.6,VALID,0,VALID,25.4169,VALID,27,VALID,0,
2009-09-01, 00:54:05,VALID,1004.47,VALID,0,VALID,91.6763,VALID,0,VALID,25.3955,VALID,27,VALID,0,
2009-09-01, 00:55:05,VALID,1004.48,VALID,0,VALID,91.7297,VALID,0,VALID,25.4169,VALID,27,VALID,0,
2009-09-01, 00:56:05,VALID,1004.45,VALID,0,VALID,91.722,VALID,0,VALID,25.4169,VALID,27,VALID,0,
2009-09-01, 00:57:05,VALID,1004.43,VALID,0,VALID,91.7602,VALID,0,VALID,25.3974,VALID,27,VALID,0.285156,
2009-09-01, 00:58:05,VALID,1004.44,VALID,0,VALID,91.8594,VALID,0,VALID,25.3779,VALID,27,VALID,0.183203,
2009-09-01, 00:59:05,VALID,1004.4,VALID,0,VALID,91.8594,VALID,0,VALID,25.3779,VALID,22,VALID,0.560547,
2009-09-01, 01:00:05,VALID,1004.39,VALID,0,VALID,91.9204,VALID,0,VALID,25.3584,VALID,22,VALID,0.321094,
2009-09-01, 01:01:05,VALID,1004.37,VALID,0,VALID,92.0043,VALID,0,VALID,25.3176,VALID,22,VALID,0.335938,
2009-09-01, 01:02:05,VALID,1004.35,VALID,0,VALID,92.0806,VALID,0,VALID,25.339,VALID,22,VALID,0.122266,
2009-09-01, 01:03:05,VALID,1004.37,VALID,0,VALID,92.134,VALID,0,VALID,25.3,VALID,22,VALID,0,
2009-09-01, 01:04:05,VALID,1004.34,VALID,0,VALID,92.1569,VALID,0.100563,VALID,25.3,VALID,22,VALID,0,
2009-09-01, 01:05:05,VALID,1004.35,VALID,0,VALID,92.1721,VALID,0,VALID,25.2806,VALID,22,VALID,0,
2009-09-01, 01:06:05,VALID,1004.34,VALID,0,VALID,92.1645,VALID,0,VALID,25.2416,VALID,22,VALID,0,
2009-09-01, 01:07:05,VALID,1004.32,VALID,0,VALID,92.2637,VALID,0,VALID,25.2416,VALID,22,VALID,0,
2009-09-01, 01:08:05,VALID,1004.29,VALID,0,VALID,92.2103,VALID,0,VALID,25.2416,VALID,22,VALID,0,
2009-09-01, 01:09:05,VALID,1004.3,VALID,0,VALID,92.0958,VALID,0,VALID,25.2611,VALID,22,VALID,0,
2009-09-01, 01:10:05,VALID,1004.29,VALID,0,VALID,92.0653,VALID,0,VALID,25.2611,VALID,22,VALID,0,
2009-09-01, 01:11:05,VALID,1004.28,VALID,0,VALID,92.1187,VALID,0.100563,VALID,25.2611,VALID,22,VALID,0,
2009-09-01, 01:12:05,VALID,1004.29,VALID,0,VALID,92.195,VALID,0,VALID,25.2611,VALID,22,VALID,0,
2009-09-01, 01:13:05,VALID,1004.28,VALID,0,VALID,92.2027,VALID,0,VALID,25.2221,VALID,22,VALID,0,
2009-09-01, 01:14:05,VALID,1004.27,VALID,0,VALID,92.2484,VALID,0,VALID,25.2221,VALID,22,VALID,0,
2009-09-01, 01:15:05,VALID,1004.24,VALID,0,VALID,92.2408,VALID,0.100563,VALID,25.2007,VALID,22,VALID,0,
2009-09-01, 01:16:05,VALID,1004.24,VALID,0,VALID,92.2484,VALID,0,VALID,25.1813,VALID,22,VALID,0,
2009-09-01, 01:17:05,VALID,1004.24,VALID,0,VALID,92.2332,VALID,0,VALID,25.1832,VALID,22,VALID,0,
2009-09-01, 01:18:05,VALID,1004.24,VALID,0,VALID,92.2637,VALID,0,VALID,25.1832,VALID,22,VALID,0,
2009-09-01, 01:19:05,VALID,1004.22,VALID,0,VALID,92.3323,VALID,0.100563,VALID,25.1423,VALID,22,VALID,0,
2009-09-01, 01:20:05,VALID,1004.23,VALID,0,VALID,92.3857,VALID,0.100563,VALID,25.1637,VALID,22,VALID,0,
2009-09-01, 01:21:05,VALID,1004.23,VALID,0,VALID,92.4086,VALID,0.100563,VALID,25.1637,VALID,22,VALID,0,
2009-09-01, 01:22:05,VALID,1004.24,VALID,0,VALID,92.3857,VALID,0,VALID,25.1637,VALID,22,VALID,0,
2009-09-01, 01:23:05,VALID,1004.22,VALID,0,VALID,92.4163,VALID,0,VALID,25.1229,VALID,22,VALID,0,
2009-09-01, 01:24:05,VALID,1004.23,VALID,0,VALID,92.4544,VALID,0,VALID,25.1229,VALID,22,VALID,0,
2009-09-01, 01:25:05,VALID,1004.26,VALID,0,VALID,92.4697,VALID,0,VALID,25.1442,VALID,22,VALID,0,
2009-09-01, 01:26:05,VALID,1004.24,VALID,0,VALID,92.4849,VALID,0,VALID,25.1229,VALID,22,VALID,0,
2009-09-01, 01:27:05,VALID,1004.22,VALID,0,VALID,92.4925,VALID,0,VALID,25.1034,VALID,22,VALID,0,
2009-09-01, 01:28:05,VALID,1004.22,VALID,0,VALID,92.546,VALID,0,VALID,25.0858,VALID,22,VALID,0,
2009-09-01, 01:29:05,VALID,1004.2,VALID,0,VALID,92.5917,VALID,0,VALID,25.0858,VALID,22,VALID,0,
2009-09-01, 01:30:05,VALID,1004.19,VALID,0,VALID,92.668,VALID,0,VALID,25.1053,VALID,22,VALID,0,
2009-09-01, 01:31:05,VALID,1004.18,VALID,0,VALID,92.607,VALID,0,VALID,25.1053,VALID,19,VALID,0,
2009-09-01, 01:32:05,VALID,1004.18,VALID,0,VALID,92.5841,VALID,0,VALID,25.1053,VALID,18,VALID,0,
2009-09-01, 01:33:05,VALID,1004.18,VALID,0,VALID,92.6222,VALID,0,VALID,25.1053,VALID,17,VALID,0.330469,
2009-09-01, 01:34:05,VALID,1004.19,VALID,0,VALID,92.607,VALID,0.100563,VALID,25.1034,VALID,17,VALID,0.391797,
2009-09-01, 01:35:05,VALID,1004.16,VALID,0,VALID,92.5688,VALID,0,VALID,25.1053,VALID,17,VALID,0.430469,
2009-09-01, 01:36:05,VALID,1004.18,VALID,0,VALID,92.5765,VALID,0,VALID,25.1053,VALID,17,VALID,0.330078,
2009-09-01, 01:37:05,VALID,1004.14,VALID,0,VALID,92.6451,VALID,0,VALID,25.0644,VALID,17,VALID,0.298438,
2009-09-01, 01:38:05,VALID,1004.15,VALID,0,VALID,92.7214,VALID,0,VALID,25.0663,VALID,17,VALID,0.263672,
2009-09-01, 01:39:05,VALID,1004.12,VALID,0,VALID,92.729,VALID,0,VALID,25.0663,VALID,17,VALID,0.283594,
2009-09-01, 01:40:05,VALID,1004.17,VALID,0,VALID,92.7672,VALID,0,VALID,25.0469,VALID,17,VALID,0.382422,
2009-09-01, 01:41:05,VALID,1004.15,VALID,0,VALID,92.7977,VALID,0,VALID,25.0255,VALID,17,VALID,0.370313,
2009-09-01, 01:42:05,VALID,1004.16,VALID,0,VALID,92.8664,VALID,0,VALID,25.0274,VALID,17,VALID,0.171484,
2009-09-01, 01:43:05,VALID,1004.16,VALID,0,VALID,92.9655,VALID,0,VALID,25.0274,VALID,17,VALID,0.0488281,
2009-09-01, 01:44:05,VALID,1004.16,VALID,0,VALID,93.0266,VALID,0,VALID,25.0274,VALID,17,VALID,0.0816406,
2009-09-01, 01:45:05,VALID,1004.17,VALID,0,VALID,92.9884,VALID,0,VALID,25.0079,VALID,17,VALID,0.183203,
2009-09-01, 01:46:05,VALID,1004.15,VALID,0,VALID,92.9426,VALID,0,VALID,25.006,VALID,17,VALID,0,
2009-09-01, 01:47:05,VALID,1004.13,VALID,0,VALID,92.9961,VALID,0,VALID,25.0079,VALID,17,VALID,0,
2009-09-01, 01:48:05,VALID,1004.17,VALID,0,VALID,93.0037,VALID,0,VALID,25.0274,VALID,17,VALID,0,
2009-09-01, 01:49:05,VALID,1004.17,VALID,0,VALID,93.0113,VALID,0,VALID,25.0079,VALID,17,VALID,0,
2009-09-01, 01:50:05,VALID,1004.14,VALID,0,VALID,93.0113,VALID,0,VALID,25.0079,VALID,17,VALID,0,
2009-09-01, 01:51:05,VALID,1004.13,VALID,0,VALID,93.0189,VALID,0,VALID,24.9671,VALID,17,VALID,0,
2009-09-01, 01:52:05,VALID,1004.14,VALID,0,VALID,93.0037,VALID,0,VALID,24.9866,VALID,17,VALID,0,
2009-09-01, 01:53:05,VALID,1004.15,VALID,0,VALID,93.0342,VALID,0,VALID,24.969,VALID,17,VALID,0,
2009-09-01, 01:54:05,VALID,1004.16,VALID,0,VALID,93.0952,VALID,0,VALID,24.9885,VALID,17,VALID,0.231641,
2009-09-01, 01:55:05,VALID,1004.16,VALID,0,VALID,93.08,VALID,0,VALID,24.969,VALID,17,VALID,0.0738281,
2009-09-01, 01:56:05,VALID,1004.19,VALID,0,VALID,93.1029,VALID,0,VALID,24.969,VALID,17,VALID,0,
2009-09-01, 01:57:05,VALID,1004.18,VALID,0,VALID,93.0495,VALID,0,VALID,24.9476,VALID,17,VALID,0,
2009-09-01, 01:58:05,VALID,1004.17,VALID,0,VALID,93.0723,VALID,0,VALID,24.9476,VALID,17,VALID,0,
2009-09-01, 01:59:05,VALID,1004.17,VALID,0,VALID,93.0723,VALID,0,VALID,24.9495,VALID,17,VALID,0,
2009-09-01, 02:00:05,VALID,1004.15,VALID,0,VALID,93.0571,VALID,0,VALID,24.93,VALID,15,VALID,0.273438,
2009-09-01, 02:01:05,VALID,1004.16,VALID,0,VALID,93.08,VALID,0,VALID,24.93,VALID,15,VALID,0.283203,
2009-09-01, 02:02:05,VALID,1004.14,VALID,0,VALID,93.1029,VALID,0,VALID,24.9106,VALID,15,VALID,0.31875,
2009-09-01, 02:03:05,VALID,1004.13,VALID,0,VALID,93.1257,VALID,0,VALID,24.8911,VALID,15,VALID,0.373437,
2009-09-01, 02:04:05,VALID,1004.14,VALID,0,VALID,93.202,VALID,0,VALID,24.8503,VALID,15,VALID,0.156641,
2009-09-01, 02:05:05,VALID,1004.13,VALID,0,VALID,93.2554,VALID,0,VALID,24.8503,VALID,4,VALID,0.396094,
2009-09-01, 02:06:05,VALID,1004.13,VALID,0,VALID,93.3699,VALID,0,VALID,24.9106,VALID,4,VALID,0.490234,
2009-09-01, 02:07:05,VALID,1004.13,VALID,0,VALID,93.3088,VALID,0,VALID,24.9106,VALID,4,VALID,0.256641,
2009-09-01, 02:08:05,VALID,1004.12,VALID,0,VALID,93.2402,VALID,0,VALID,24.8697,VALID,4,VALID,0.237891,
2009-09-01, 02:09:05,VALID,1004.13,VALID,0,VALID,93.2478,VALID,0,VALID,24.8716,VALID,4,VALID,0,
2009-09-01, 02:10:05,VALID,1004.08,VALID,0,VALID,93.3088,VALID,0,VALID,24.8503,VALID,4,VALID,0.0164062,
2009-09-01, 02:11:05,VALID,1004.1,VALID,0,VALID,93.2707,VALID,0,VALID,24.8716,VALID,4,VALID,0.198828,
2009-09-01, 02:12:05,VALID,1004.07,VALID,0,VALID,93.2631,VALID,0,VALID,24.8716,VALID,4,VALID,0.192188,
2009-09-01, 02:13:05,VALID,1004.09,VALID,0,VALID,93.2631,VALID,0,VALID,24.8716,VALID,4,VALID,0.138281,
2009-09-01, 02:14:05,VALID,1004.08,VALID,0,VALID,93.1944,VALID,0,VALID,24.8522,VALID,4,VALID,0.00195313,
2009-09-01, 02:15:05,VALID,1004.08,VALID,0,VALID,93.1639,VALID,0,VALID,24.8308,VALID,4,VALID,0,
2009-09-01, 02:16:05,VALID,1004.05,VALID,0,VALID,93.1639,VALID,0,VALID,24.8522,VALID,4,VALID,0,
2009-09-01, 02:17:05,VALID,1004.06,VALID,0,VALID,93.1639,VALID,0,VALID,24.8716,VALID,4,VALID,0,
2009-09-01, 02:18:05,VALID,1004.05,VALID,0,VALID,93.1715,VALID,0,VALID,24.8308,VALID,4,VALID,0,
2009-09-01, 02:19:05,VALID,1004.04,VALID,0,VALID,93.2173,VALID,0,VALID,24.8522,VALID,4,VALID,0,
2009-09-01, 02:20:05,VALID,1004.04,VALID,0,VALID,93.1715,VALID,0,VALID,24.8716,VALID,4,VALID,0,
2009-09-01, 02:21:05,VALID,1004.01,VALID,0,VALID,93.1257,VALID,0,VALID,24.8308,VALID,4,VALID,0,
2009-09-01, 02:22:05,VALID,1004.01,VALID,0,VALID,93.141,VALID,0,VALID,24.8522,VALID,4,VALID,0,
2009-09-01, 02:23:05,VALID,1003.99,VALID,0,VALID,93.1029,VALID,0,VALID,24.8113,VALID,4,VALID,0,
2009-09-01, 02:24:05,VALID,1003.94,VALID,0,VALID,93.08,VALID,0,VALID,24.8327,VALID,4,VALID,0,
2009-09-01, 02:25:05,VALID,1003.95,VALID,0,VALID,93.1029,VALID,0,VALID,24.8327,VALID,4,VALID,0.4375,
2009-09-01, 02:26:05,VALID,1003.91,VALID,0,VALID,93.1486,VALID,0,VALID,24.8132,VALID,4,VALID,0.476172,
2009-09-01, 02:27:05,VALID,1003.91,VALID,0,VALID,93.1486,VALID,0,VALID,24.7724,VALID,360,VALID,0.431641,
2009-09-01, 02:28:05,VALID,1003.92,VALID,0,VALID,93.1791,VALID,0,VALID,24.7937,VALID,360,VALID,0.424609,
2009-09-01, 02:29:05,VALID,1003.89,VALID,0,VALID,93.2325,VALID,0,VALID,24.7724,VALID,360,VALID,0.271094,
2009-09-01, 02:30:05,VALID,1003.87,VALID,0,VALID,93.202,VALID,0,VALID,24.7919,VALID,360,VALID,0.267578,
2009-09-01, 02:31:05,VALID,1003.89,VALID,0,VALID,93.1563,VALID,0,VALID,24.8113,VALID,360,VALID,0.0570313,
2009-09-01, 02:32:05,VALID,1003.89,VALID,0,VALID,93.1029,VALID,0,VALID,24.8308,VALID,360,VALID,0.00234375,
2009-09-01, 02:33:05,VALID,1003.88,VALID,0,VALID,92.9884,VALID,0.100563,VALID,24.8113,VALID,360,VALID,0.163672,
2009-09-01, 02:34:05,VALID,1003.87,VALID,0,VALID,92.9426,VALID,0,VALID,24.8308,VALID,360,VALID,0,
2009-09-01, 02:35:05,VALID,1003.87,VALID,0,VALID,92.9198,VALID,0,VALID,24.8327,VALID,360,VALID,0.354688,
2009-09-01, 02:36:05,VALID,1003.9,VALID,0,VALID,92.9198,VALID,0,VALID,24.8113,VALID,360,VALID,0.0515625,
2009-09-01, 02:37:05,VALID,1003.85,VALID,0,VALID,92.874,VALID,0,VALID,24.8113,VALID,360,VALID,0,
2009-09-01, 02:38:05,VALID,1003.87,VALID,0,VALID,92.9121,VALID,0,VALID,24.7919,VALID,360,VALID,0.00078125,
2009-09-01, 02:39:05,VALID,1003.86,VALID,0,VALID,92.8969,VALID,0,VALID,24.7937,VALID,360,VALID,0.146094,
2009-09-01, 02:40:05,VALID,1003.86,VALID,0,VALID,92.874,VALID,0,VALID,24.7529,VALID,360,VALID,0.0800781,
2009-09-01, 02:41:05,VALID,1003.85,VALID,0,VALID,92.9121,VALID,0,VALID,24.7548,VALID,360,VALID,0.434375,
2009-09-01, 02:42:05,VALID,1003.87,VALID,0,VALID,92.9121,VALID,0,VALID,24.714,VALID,360,VALID,0.255859,
2009-09-01, 02:43:05,VALID,1003.85,VALID,0,VALID,92.9121,VALID,0,VALID,24.7353,VALID,360,VALID,0.126172,
2009-09-01, 02:44:05,VALID,1003.85,VALID,0,VALID,92.9961,VALID,0,VALID,24.714,VALID,360,VALID,0.123047,
2009-09-01, 02:45:05,VALID,1003.81,VALID,0,VALID,92.9579,VALID,0,VALID,24.7353,VALID,360,VALID,0.278906,
2009-09-01, 02:46:05,VALID,1003.81,VALID,0,VALID,92.935,VALID,0,VALID,24.675,VALID,360,VALID,0,
2009-09-01, 02:47:05,VALID,1003.8,VALID,0,VALID,92.9808,VALID,0,VALID,24.6964,VALID,360,VALID,0,
2009-09-01, 02:48:05,VALID,1003.75,VALID,0,VALID,92.9961,VALID,0,VALID,24.675,VALID,360,VALID,0,
2009-09-01, 02:49:05,VALID,1003.75,VALID,0,VALID,93.0495,VALID,0,VALID,24.6556,VALID,360,VALID,0,
2009-09-01, 02:50:05,VALID,1003.71,VALID,0,VALID,93.0266,VALID,0.100563,VALID,24.6556,VALID,360,VALID,0,
2009-09-01, 02:51:04,VALID,1003.69,VALID,0,VALID,93.0037,VALID,0,VALID,24.6361,VALID,360,VALID,0,
2009-09-01, 02:52:04,VALID,1003.71,VALID,0,VALID,92.9655,VALID,0,VALID,24.6361,VALID,360,VALID,0,
2009-09-01, 02:53:04,VALID,1003.68,VALID,0,VALID,93.0189,VALID,0,VALID,24.6574,VALID,360,VALID,0,
2009-09-01, 02:54:04,VALID,1003.71,VALID,0,VALID,93.0266,VALID,0,VALID,24.6361,VALID,360,VALID,0,
2009-09-01, 02:55:04,VALID,1003.68,VALID,0,VALID,92.9121,VALID,0,VALID,24.6574,VALID,360,VALID,0,
2009-09-01, 02:56:04,VALID,1003.67,VALID,0,VALID,92.874,VALID,0,VALID,24.6361,VALID,360,VALID,0,
2009-09-01, 02:57:04,VALID,1003.64,VALID,0,VALID,92.9045,VALID,0,VALID,24.6769,VALID,360,VALID,0.348828,
2009-09-01, 02:58:04,VALID,1003.63,VALID,0,VALID,92.8892,VALID,0,VALID,24.675,VALID,360,VALID,0.546875,
2009-09-01, 02:59:04,VALID,1003.62,VALID,0,VALID,92.8969,VALID,0,VALID,24.675,VALID,360,VALID,0.35625,
2009-09-01, 03:00:04,VALID,1003.62,VALID,0,VALID,92.8816,VALID,0,VALID,24.6945,VALID,360,VALID,0.395703,
2009-09-01, 03:01:04,VALID,1003.59,VALID,0,VALID,92.8282,VALID,0,VALID,24.6945,VALID,360,VALID,0.492188,
2009-09-01, 03:02:04,VALID,1003.59,VALID,0,VALID,92.813,VALID,0,VALID,24.7159,VALID,360,VALID,0.39375,
2009-09-01, 03:03:04,VALID,1003.57,VALID,0,VALID,92.8358,VALID,0,VALID,24.675,VALID,360,VALID,0.39375,
2009-09-01, 03:04:04,VALID,1003.55,VALID,0,VALID,92.8664,VALID,0,VALID,24.675,VALID,360,VALID,0.379687,
2009-09-01, 03:05:04,VALID,1003.58,VALID,0,VALID,92.9121,VALID,0,VALID,24.6556,VALID,360,VALID,0.478516,
2009-09-01, 03:06:04,VALID,1003.6,VALID,0,VALID,93.0342,VALID,0,VALID,24.6574,VALID,360,VALID,0.387891,
2009-09-01, 03:07:04,VALID,1003.59,VALID,0,VALID,93.141,VALID,0,VALID,24.6361,VALID,360,VALID,0.33125,
2009-09-01, 03:08:04,VALID,1003.56,VALID,0,VALID,93.2249,VALID,0,VALID,24.6361,VALID,360,VALID,0.3125,
2009-09-01, 03:09:04,VALID,1003.59,VALID,0,VALID,93.2936,VALID,0,VALID,24.6166,VALID,360,VALID,0.223047,
2009-09-01, 03:10:04,VALID,1003.57,VALID,0,VALID,93.3317,VALID,0,VALID,24.6361,VALID,360,VALID,0.471094,
2009-09-01, 03:11:04,VALID,1003.56,VALID,0,VALID,93.347,VALID,0,VALID,24.6574,VALID,360,VALID,0.214453,
2009-09-01, 03:12:04,VALID,1003.56,VALID,0,VALID,93.347,VALID,0,VALID,24.6166,VALID,360,VALID,0.149609,
2009-09-01, 03:13:04,VALID,1003.56,VALID,0,VALID,93.3622,VALID,0,VALID,24.638,VALID,360,VALID,0.246875,
2009-09-01, 03:14:04,VALID,1003.55,VALID,0,VALID,93.3546,VALID,0,VALID,24.6574,VALID,360,VALID,0.123047,
2009-09-01, 03:15:04,VALID,1003.54,VALID,0,VALID,93.3851,VALID,0,VALID,24.6769,VALID,360,VALID,0.250781,
2009-09-01, 03:16:04,VALID,1003.53,VALID,0,VALID,93.3928,VALID,0,VALID,24.675,VALID,360,VALID,0,
2009-09-01, 03:17:04,VALID,1003.51,VALID,0,VALID,93.3012,VALID,0,VALID,24.714,VALID,359,VALID,0.502344,
2009-09-01, 03:18:04,VALID,1003.52,VALID,0,VALID,93.1944,VALID,0,VALID,24.7937,VALID,359,VALID,0,
2009-09-01, 03:19:04,VALID,1003.52,VALID,0,VALID,93.0342,VALID,0,VALID,24.8132,VALID,359,VALID,0,
2009-09-01, 03:20:04,VALID,1003.53,VALID,0,VALID,92.9045,VALID,0,VALID,24.8503,VALID,359,VALID,0,
2009-09-01, 03:21:04,VALID,1003.52,VALID,0,VALID,92.7596,VALID,0,VALID,24.8522,VALID,359,VALID,0,
2009-09-01, 03:22:04,VALID,1003.5,VALID,0,VALID,92.7062,VALID,0.100563,VALID,24.8522,VALID,359,VALID,0,
2009-09-01, 03:23:04,VALID,1003.53,VALID,0,VALID,92.7519,VALID,0,VALID,24.8308,VALID,359,VALID,0,
2009-09-01, 03:24:04,VALID,1003.52,VALID,0,VALID,92.7596,VALID,0,VALID,24.8113,VALID,359,VALID,0,
2009-09-01, 03:25:04,VALID,1003.51,VALID,0,VALID,92.8816,VALID,0,VALID,24.8522,VALID,359,VALID,0,
2009-09-01, 03:26:04,VALID,1003.55,VALID,0,VALID,92.8816,VALID,0,VALID,24.8132,VALID,359,VALID,0,
2009-09-01, 03:27:04,VALID,1003.54,VALID,0,VALID,92.8892,VALID,0,VALID,24.7937,VALID,359,VALID,0,
2009-09-01, 03:28:04,VALID,1003.53,VALID,0,VALID,92.8664,VALID,0,VALID,24.7529,VALID,359,VALID,0,
2009-09-01, 03:29:04,VALID,1003.54,VALID,0,VALID,92.8969,VALID,0.100563,VALID,24.7724,VALID,359,VALID,0,
2009-09-01, 03:30:04,VALID,1003.56,VALID,0,VALID,92.8892,VALID,0,VALID,24.7529,VALID,359,VALID,0,
2009-09-01, 03:31:04,VALID,1003.58,VALID,0,VALID,92.9808,VALID,0.100563,VALID,24.7335,VALID,359,VALID,0,
2009-09-01, 03:32:04,VALID,1003.58,VALID,0,VALID,92.9579,VALID,0,VALID,24.7335,VALID,359,VALID,0,
2009-09-01, 03:33:04,VALID,1003.56,VALID,0,VALID,92.9884,VALID,0,VALID,24.714,VALID,359,VALID,0,
2009-09-01, 03:34:04,VALID,1003.59,VALID,0,VALID,93.0037,VALID,0,VALID,24.7548,VALID,359,VALID,0,
2009-09-01, 03:35:04,VALID,1003.57,VALID,0,VALID,93.0342,VALID,0,VALID,24.7548,VALID,359,VALID,0,
2009-09-01, 03:36:04,VALID,1003.58,VALID,0,VALID,93.0342,VALID,0,VALID,24.7548,VALID,359,VALID,0,
2009-09-01, 03:37:04,VALID,1003.57,VALID,0,VALID,93.0266,VALID,0,VALID,24.7548,VALID,359,VALID,0,
2009-09-01, 03:38:04,VALID,1003.58,VALID,0,VALID,93.08,VALID,0,VALID,24.7353,VALID,359,VALID,0,
2009-09-01, 03:39:04,VALID,1003.57,VALID,0,VALID,93.1029,VALID,0,VALID,24.714,VALID,359,VALID,0,
2009-09-01, 03:40:04,VALID,1003.59,VALID,0,VALID,93.1486,VALID,0,VALID,24.7353,VALID,359,VALID,0,
2009-09-01, 03:41:04,VALID,1003.58,VALID,0,VALID,93.1563,VALID,0,VALID,24.7353,VALID,359,VALID,0,
2009-09-01, 03:42:04,VALID,1003.57,VALID,0,VALID,93.2249,VALID,0,VALID,24.714,VALID,359,VALID,0,
2009-09-01, 03:43:04,VALID,1003.63,VALID,0,VALID,93.2554,VALID,0,VALID,24.7548,VALID,359,VALID,0,
2009-09-01, 03:44:04,VALID,1003.58,VALID,0,VALID,93.2631,VALID,0,VALID,24.7335,VALID,359,VALID,0,
2009-09-01, 03:45:04,VALID,1003.56,VALID,0,VALID,93.2859,VALID,0,VALID,24.7529,VALID,359,VALID,0,
2009-09-01, 03:46:04,VALID,1003.55,VALID,0,VALID,93.3012,VALID,0,VALID,24.7743,VALID,359,VALID,0,
2009-09-01, 03:47:04,VALID,1003.56,VALID,0,VALID,93.2783,VALID,0.100563,VALID,24.7529,VALID,359,VALID,0,
2009-09-01, 03:48:04,VALID,1003.57,VALID,0,VALID,93.2325,VALID,0,VALID,24.7743,VALID,359,VALID,0,
2009-09-01, 03:49:04,VALID,1003.55,VALID,0,VALID,93.2097,VALID,0,VALID,24.7724,VALID,359,VALID,0,
2009-09-01, 03:50:04,VALID,1003.54,VALID,0,VALID,93.2249,VALID,0,VALID,24.7743,VALID,359,VALID,0,